• In Belarus
  • List of Countries
  • For 7 days
  • Water Temperature
  • Weather Map
  • Weather Widgets
  • user-avatar
    Login

    Hourly Weather Nakhchivan

    Today, 8 April, Wednesday

    Time Temperature Precipitation Wind Pressure Humidity
    00:00 +2°C° 0 mm 3 mps 690 mmHg 69%
    01:00 +2°C° 0 mm 3 mps 690 mmHg 69%
    02:00 +3°C° 0 mm 2 mps 690 mmHg 69%
    03:00 +3°C° 0 mm 2 mps 690 mmHg 68%
    04:00 +3°C° 0 mm 2 mps 691 mmHg 67%
    05:00 +3°C° 0 mm 2 mps 691 mmHg 67%
    06:00 +2°C° 0 mm 2 mps 691 mmHg 67%
    07:00 +3°C° 0 mm 2 mps 692 mmHg 62%
    08:00 +4°C° 0 mm 2 mps 692 mmHg 58%
    09:00 +5°C° 0 mm 2 mps 693 mmHg 53%
    10:00 +6°C° 0 mm 2 mps 692 mmHg 50%
    11:00 +7°C° 0 mm 3 mps 692 mmHg 47%
    12:00 +9°C° 0 mm 3 mps 692 mmHg 44%
    13:00 +9°C° 0 mm 3 mps 692 mmHg 43%
    14:00 +10°C° 0 mm 3 mps 692 mmHg 41%
    15:00 +11°C° 0 mm 4 mps 691 mmHg 40%
    16:00 +10°C° 0 mm 4 mps 691 mmHg 42%
    17:00 +8°C° 0 mm 4 mps 691 mmHg 44%
    18:00 +8°C° 0 mm 4 mps 691 mmHg 46%
    19:00 +7°C° 0 mm 4 mps 691 mmHg 50%
    20:00 +7°C° 0 mm 3 mps 691 mmHg 55%
    21:00 +5°C° 0 mm 3 mps 691 mmHg 59%
    22:00 +4°C° 0 mm 3 mps 691 mmHg 60%
    23:00 +4°C° 0 mm 3 mps 690 mmHg 61%

    Tomorrow, 9 April, Thursday

    Time Temperature Precipitation Wind Pressure Humidity
    00:00 +4°C° 0 mm 2 mps 690 mmHg 62%
    01:00 +4°C° 0 mm 2 mps 690 mmHg 64%
    02:00 +4°C° 0 mm 2 mps 689 mmHg 65%
    03:00 +4°C° 0 mm 1 mps 688 mmHg 66%
    04:00 +4°C° 0 mm 1 mps 688 mmHg 66%
    05:00 +4°C° 0 mm 1 mps 688 mmHg 67%
    06:00 +4°C° 0 mm 1 mps 688 mmHg 67%
    07:00 +6°C° 0 mm 1 mps 687 mmHg 62%
    08:00 +7°C° 0 mm 1 mps 687 mmHg 57%
    09:00 +8°C° 0 mm 1 mps 687 mmHg 53%
    10:00 +10°C° 0 mm 1 mps 686 mmHg 50%
    11:00 +11°C° 0 mm 1 mps 686 mmHg 47%
    12:00 +12°C° 0 mm 1 mps 685 mmHg 44%
    13:00 +13°C° 0 mm 1 mps 685 mmHg 42%
    14:00 +14°C° 0 mm 1 mps 685 mmHg 41%
    15:00 +15°C° 0 mm 1 mps 684 mmHg 40%
    16:00 +15°C° 0 mm 1 mps 684 mmHg 41%
    17:00 +15°C° 0 mm 1 mps 684 mmHg 42%
    18:00 +15°C° 0 mm 1 mps 684 mmHg 43%
    19:00 +14°C° 0 mm 1 mps 684 mmHg 48%
    20:00 +14°C° 0 mm 1 mps 684 mmHg 53%
    21:00 +13°C° 0 mm 1 mps 684 mmHg 57%
    22:00 +12°C° 0 mm 1 mps 683 mmHg 60%
    23:00 +12°C° 0 mm 1 mps 683 mmHg 63%

    Day after tomorrow, 10 April, Friday

    Time Temperature Precipitation Wind Pressure Humidity
    00:00 +10°C° 0 mm 2 mps 683 mmHg 66%
    01:00 +9°C° 0 mm 2 mps 682 mmHg 68%
    02:00 +10°C° 0 mm 1 mps 682 mmHg 69%
    03:00 +9°C° 0 mm 1 mps 681 mmHg 71%
    04:00 +9°C° 0 mm 1 mps 681 mmHg 71%
    05:00 +9°C° 0 mm 1 mps 681 mmHg 72%
    06:00 +9°C° 0 mm 1 mps 681 mmHg 73%
    07:00 +10°C° 0 mm 1 mps 682 mmHg 67%
    08:00 +11°C° 0 mm 1 mps 682 mmHg 62%
    09:00 +13°C° 0 mm 2 mps 682 mmHg 56%
    10:00 +14°C° 0 mm 2 mps 682 mmHg 52%
    11:00 +15°C° 0 mm 1 mps 682 mmHg 49%
    12:00 +18°C° 0 mm 1 mps 682 mmHg 45%
    13:00 +17°C° 0 mm 2 mps 681 mmHg 43%
    14:00 +18°C° 0 mm 2 mps 681 mmHg 41%
    15:00 +19°C° 0 mm 2 mps 681 mmHg 39%
    16:00 +18°C° 0.1 mm 3 mps 681 mmHg 44%
    17:00 +17°C° 0.1 mm 3 mps 681 mmHg 48%
    18:00 +17°C° 0.1 mm 4 mps 681 mmHg 53%
    19:00 +14°C° 0.8 mm 3 mps 681 mmHg 60%
    20:00 +13°C° 0.8 mm 3 mps 681 mmHg 67%
    21:00 +13°C° 0.8 mm 2 mps 681 mmHg 73%
    22:00 +13°C° 0.1 mm 2 mps 681 mmHg 74%
    23:00 +13°C° 0.1 mm 1 mps 681 mmHg 75%

    11 April, Saturday

    Time Temperature Precipitation Wind Pressure Humidity
    00:00 +12°C° 0.1 mm 1 mps 681 mmHg 75%
    01:00 +12°C° 0.1 mm 1 mps 681 mmHg 76%
    02:00 +11°C° 0.1 mm 1 mps 681 mmHg 77%
    03:00 +11°C° 0.1 mm 1 mps 681 mmHg 78%
    04:00 +11°C° 0.1 mm 1 mps 681 mmHg 77%
    05:00 +11°C° 0.1 mm 1 mps 681 mmHg 77%
    06:00 +10°C° 0.1 mm 1 mps 681 mmHg 77%
    07:00 +11°C° 0.2 mm 1 mps 681 mmHg 72%
    08:00 +12°C° 0.2 mm 1 mps 681 mmHg 68%
    09:00 +12°C° 0.2 mm 1 mps 681 mmHg 64%
    10:00 +14°C° 0.1 mm 1 mps 681 mmHg 59%
    11:00 +15°C° 0.1 mm 1 mps 681 mmHg 55%
    12:00 +16°C° 0.1 mm 1 mps 681 mmHg 50%
    13:00 +16°C° 0.2 mm 2 mps 681 mmHg 48%
    14:00 +17°C° 0.2 mm 2 mps 681 mmHg 46%
    15:00 +18°C° 0.2 mm 2 mps 681 mmHg 43%
    16:00 +17°C° 0.3 mm 3 mps 681 mmHg 45%
    17:00 +17°C° 0.3 mm 3 mps 681 mmHg 46%
    18:00 +16°C° 0.3 mm 3 mps 682 mmHg 47%
    19:00 +14°C° 0.2 mm 3 mps 682 mmHg 52%
    20:00 +14°C° 0.2 mm 3 mps 683 mmHg 56%
    21:00 +13°C° 0.2 mm 3 mps 683 mmHg 60%
    22:00 +12°C° 0 mm 3 mps 683 mmHg 61%
    23:00 +12°C° 0 mm 3 mps 683 mmHg 62%

    12 April, Sunday

    Time Temperature Precipitation Wind Pressure Humidity
    00:00 +11°C° 0 mm 3 mps 684 mmHg 63%
    01:00 +10°C° 0 mm 2 mps 684 mmHg 64%
    02:00 +10°C° 0 mm 2 mps 684 mmHg 65%
    03:00 +9°C° 0 mm 2 mps 684 mmHg 66%
    04:00 +9°C° 0 mm 2 mps 684 mmHg 65%
    05:00 +9°C° 0 mm 2 mps 685 mmHg 63%
    06:00 +9°C° 0 mm 3 mps 685 mmHg 62%
    07:00 +9°C° 0 mm 2 mps 685 mmHg 58%
    08:00 +10°C° 0 mm 2 mps 685 mmHg 54%
    09:00 +12°C° 0 mm 2 mps 686 mmHg 50%
    10:00 +12°C° 0 mm 2 mps 686 mmHg 47%
    11:00 +13°C° 0 mm 2 mps 686 mmHg 44%
    12:00 +14°C° 0 mm 2 mps 686 mmHg 41%
    13:00 +15°C° 0 mm 2 mps 686 mmHg 40%
    14:00 +16°C° 0 mm 2 mps 686 mmHg 38%
    15:00 +16°C° 0 mm 2 mps 686 mmHg 36%
    16:00 +16°C° 0 mm 2 mps 686 mmHg 38%
    17:00 +16°C° 0 mm 2 mps 686 mmHg 40%
    18:00 +16°C° 0 mm 2 mps 686 mmHg 42%
    19:00 +15°C° 0 mm 2 mps 686 mmHg 48%
    20:00 +12°C° 0 mm 3 mps 687 mmHg 54%
    21:00 +11°C° 0 mm 3 mps 687 mmHg 61%
    22:00 +11°C° 0 mm 3 mps 687 mmHg 62%
    23:00 +10°C° 0 mm 3 mps 688 mmHg 63%

    13 April, Monday

    Time Temperature Precipitation Wind Pressure Humidity
    00:00 +10°C° 0 mm 3 mps 688 mmHg 64%
    01:00 +10°C° 0 mm 3 mps 688 mmHg 65%
    02:00 +9°C° 0 mm 3 mps 688 mmHg 66%
    03:00 +9°C° 0 mm 3 mps 688 mmHg 66%
    04:00 +9°C° 0 mm 3 mps 688 mmHg 68%
    05:00 +9°C° 0 mm 3 mps 689 mmHg 70%
    06:00 +8°C° 0 mm 3 mps 689 mmHg 72%
    07:00 +9°C° 0 mm 3 mps 689 mmHg 68%
    08:00 +9°C° 0 mm 3 mps 689 mmHg 64%
    09:00 +10°C° 0 mm 3 mps 690 mmHg 61%
    10:00 +11°C° 0 mm 3 mps 689 mmHg 57%
    11:00 +12°C° 0 mm 3 mps 689 mmHg 52%
    12:00 +13°C° 0 mm 3 mps 689 mmHg 48%
    13:00 +14°C° 0 mm 3 mps 689 mmHg 47%
    14:00 +14°C° 0 mm 3 mps 689 mmHg 45%
    15:00 +15°C° 0 mm 4 mps 688 mmHg 44%
    16:00 +14°C° 0 mm 4 mps 688 mmHg 46%
    17:00 +14°C° 0 mm 3 mps 688 mmHg 48%
    18:00 +13°C° 0 mm 3 mps 688 mmHg 50%
    19:00 +12°C° 0 mm 3 mps 688 mmHg 53%
    20:00 +11°C° 0 mm 3 mps 688 mmHg 57%
    21:00 +10°C° 0 mm 3 mps 688 mmHg 61%
    22:00 +10°C° 0 mm 3 mps 688 mmHg 62%
    23:00 +9°C° 0 mm 3 mps 688 mmHg 64%
    Show more